Oxford, NC

11:48 AM EST on December 13, 2019 (GMT -0500)
Henderson-Oxford

Weather History for KHNZ - October, 2019

Change the Weather History Date:

Sunday, October 13, 2019

  Actual Average (WUND) Record (WUND)
Temperature  
Mean Temperature 59 °F -  
Max Temperature 64 °F - - (-1)
Min Temperature 54 °F - - (-1)
Degree Days  
Heating Degree Days 6    
Growing Degree Days 9 (Base 50)    
Moisture  
Dew Point 59 °F    
Average Humidity 94    
Maximum Humidity 99    
Minimum Humidity 73    
Precipitation  
Precipitation 0.29 in - - ()
Sea Level Pressure  
Sea Level Pressure 30.03 in    
Wind  
Wind Speed 0 mph (SSE)    
Max Wind Speed 7 mph    
Max Gust Speed -    
Visibility 8 miles    
Events Rain    
Averages and records for this station are not official NWS values.
T = Trace of Precipitation, MM = Missing Value Source: NWS Daily Summary

Daily Weather History Graph

Daily Weather History Graph

Search for Another Location

Airport or City:

Astronomy

Oct. 13, 2019 Rise Set
Actual Time 7:19 AM EDT 6:40 PM EDT
Civil Twilight 6:53 AM EDT 7:06 PM EDT
Nautical Twilight 6:23 AM EDT 7:36 PM EDT
Astronomical Twilight 5:53 AM EDT 8:06 PM EDT
Moon 7:01 PM EDT 6:54 AM EDT
Length of Visible Light 12h 13m
Length of Day
11h 21m
Full, 100% of the Moon is Illuminated
Oct 13
Full
Oct 13
Full
Oct 21
Last Quarter
Oct 27
New
Nov 4
First Quarter

Hourly Weather History & Observations

Time (EDT) Temp. Dew Point Humidity Pressure Visibility Wind Dir Wind Speed Gust Speed Precip Events Conditions
12:15 AM 64.6 °F 55.8 °F 73% 30.02 in 10.0 mi Calm Calm - N/A   Clear
12:35 AM 64.2 °F 55.8 °F 74% 30.02 in 10.0 mi Calm Calm - N/A   Clear
12:55 AM 63.0 °F 55.4 °F 76% 30.02 in 10.0 mi Calm Calm - N/A   Clear
1:15 AM 63.1 °F 55.4 °F 76% 30.02 in 10.0 mi Calm Calm - N/A   Clear
3:15 AM 58.1 °F 54.5 °F 88% 30.01 in 10.0 mi Calm Calm - N/A   Clear
3:35 AM 56.8 °F 54.3 °F 91% 30.01 in 10.0 mi Calm Calm - N/A   Clear
3:55 AM 56.1 °F 54.1 °F 93% 30.01 in 10.0 mi Calm Calm - N/A   Clear
4:15 AM 56.3 °F 54.0 °F 92% 30.01 in 10.0 mi Calm Calm - N/A   Clear
4:35 AM 56.1 °F 53.4 °F 91% 30.02 in 10.0 mi Calm Calm - N/A   Clear
4:55 AM 55.2 °F 54.0 °F 96% 30.02 in 10.0 mi Calm Calm - N/A   Clear
5:15 AM 56.1 °F 53.6 °F 91% 30.03 in 10.0 mi Calm Calm - N/A   Clear
5:35 AM 54.9 °F 52.7 °F 92% 30.03 in 10.0 mi Calm Calm - N/A   Clear
5:55 AM 54.7 °F 53.1 °F 94% 30.03 in 10.0 mi Calm Calm - N/A   Clear
6:15 AM 54.3 °F 52.7 °F 94% 30.04 in 10.0 mi Calm Calm - N/A   Clear
6:35 AM 54.9 °F 52.9 °F 93% 30.04 in 10.0 mi Calm Calm - N/A   Clear
6:55 AM 54.0 °F 52.5 °F 95% 30.04 in 10.0 mi Calm Calm - N/A   Clear
7:35 AM 54.9 °F 52.5 °F 92% 30.06 in 10.0 mi Calm Calm - N/A   Clear
7:55 AM 54.7 °F 53.4 °F 96% 30.06 in 10.0 mi Calm Calm - N/A   Scattered Clouds
8:15 AM 56.3 °F 53.8 °F 91% 30.06 in 10.0 mi Calm Calm - N/A   Scattered Clouds
8:35 AM 56.3 °F 54.0 °F 92% 30.07 in 10.0 mi Calm Calm - N/A Rain Light Rain
8:55 AM 56.8 °F 54.9 °F 93% 30.06 in 10.0 mi NE 6.9 mph - N/A Rain Light Rain
9:15 AM 56.8 °F 55.2 °F 94% 30.07 in 10.0 mi Calm Calm - N/A   Scattered Clouds
9:35 AM 58.3 °F 56.3 °F 93% 30.06 in 10.0 mi Calm Calm - N/A   Scattered Clouds
9:55 AM 59.7 °F 56.7 °F 90% 30.07 in 10.0 mi Calm Calm - N/A   Mostly Cloudy
10:15 AM 60.1 °F 56.3 °F 87% 30.07 in 10.0 mi Calm Calm - N/A   Scattered Clouds
10:35 AM 60.3 °F 57.0 °F 89% 30.07 in 10.0 mi Calm Calm - N/A Rain Light Rain
10:55 AM 59.5 °F 57.9 °F 94% 30.07 in 10.0 mi Calm Calm - N/A Rain Light Rain
11:15 AM 60.1 °F 58.5 °F 94% 30.07 in 10.0 mi Calm Calm - N/A   Scattered Clouds
11:35 AM 60.4 °F 58.3 °F 93% 30.10 in 10.0 mi Calm Calm - N/A   Scattered Clouds
11:55 AM 60.4 °F 59.0 °F 95% 30.09 in 10.0 mi Calm Calm - N/A Rain Rain
12:15 PM 60.4 °F 58.8 °F 94% 30.08 in 7.0 mi Calm Calm - N/A Rain Light Rain
12:35 PM 60.8 °F 59.0 °F 94% 30.07 in 7.0 mi Calm Calm - N/A Rain Light Rain
12:55 PM 61.9 °F 59.9 °F 93% 30.08 in 7.0 mi Calm Calm - N/A Rain Light Rain
1:15 PM 62.6 °F 59.4 °F 89% 30.06 in 10.0 mi Calm Calm - N/A   Scattered Clouds
1:35 PM 62.1 °F 59.7 °F 92% 30.05 in 10.0 mi Calm Calm - N/A   Scattered Clouds
1:55 PM 62.6 °F 60.6 °F 93% 30.05 in 10.0 mi Calm Calm - 0.01 in   Scattered Clouds
2:15 PM 62.6 °F 60.3 °F 92% 30.05 in 10.0 mi Calm Calm - N/A   Scattered Clouds
2:35 PM 62.1 °F 60.3 °F 94% 30.04 in 7.0 mi SSW 5.8 mph - N/A Rain Rain
2:55 PM 61.9 °F 60.6 °F 96% 30.03 in 5.0 mi Calm Calm - N/A Rain Rain
3:15 PM 61.9 °F 61.0 °F 97% 30.03 in 7.0 mi Calm Calm - N/A Rain Light Rain
3:35 PM 61.9 °F 60.8 °F 96% 30.02 in 7.0 mi Calm Calm - 0.01 in Rain Light Rain
3:55 PM 62.6 °F 61.3 °F 96% 30.02 in 10.0 mi Calm Calm - 0.01 in   Mostly Cloudy
4:15 PM 63.0 °F 61.7 °F 96% 30.01 in 10.0 mi South 3.5 mph - 0.01 in   Scattered Clouds
4:35 PM 63.0 °F 61.9 °F 96% 30.01 in 10.0 mi Calm Calm - 0.01 in   Mostly Cloudy
4:55 PM 63.0 °F 61.9 °F 96% 30.00 in 7.0 mi Calm Calm - 0.01 in Rain Light Rain
5:15 PM 63.0 °F 62.1 °F 97% 30.00 in 7.0 mi Calm Calm - 0.01 in Rain Light Rain
5:35 PM 63.0 °F 62.1 °F 97% 30.00 in 2.5 mi Calm Calm - 0.01 in Rain Light Rain
5:55 PM 63.0 °F 62.2 °F 97% 30.02 in 5.0 mi Calm Calm - 0.03 in Rain Light Rain
6:15 PM 63.0 °F 62.2 °F 97% 30.01 in 2.0 mi Calm Calm - 0.02 in Rain Rain
6:35 PM 63.0 °F 62.4 °F 98% 30.00 in 3.0 mi Calm Calm - 0.04 in Rain Rain
6:55 PM 62.8 °F 62.2 °F 98% 29.99 in 3.0 mi Calm Calm - 0.06 in Rain Light Rain
7:15 PM 62.8 °F 62.2 °F 98% 30.00 in 4.0 mi Calm Calm - 0.01 in   Overcast
7:35 PM 63.0 °F 62.6 °F 99% 30.01 in 4.0 mi Calm Calm - 0.02 in   Overcast
7:55 PM 63.0 °F 62.6 °F 99% 30.01 in 7.0 mi Calm Calm - 0.03 in   Overcast
8:15 PM 63.0 °F 62.6 °F 99% 30.02 in 5.0 mi Calm Calm - N/A Rain Light Rain
8:35 PM 62.8 °F 62.2 °F 98% 30.01 in 7.0 mi Calm Calm - 0.01 in Rain Light Rain
8:55 PM 62.8 °F 62.2 °F 98% 30.02 in 7.0 mi Calm Calm - 0.02 in Rain Light Rain
9:15 PM 62.6 °F 62.1 °F 98% 30.01 in 7.0 mi Calm Calm - 0.01 in Rain Light Rain
9:35 PM 62.8 °F 62.2 °F 98% 30.01 in 7.0 mi Calm Calm - 0.02 in   Overcast
9:55 PM 62.8 °F 62.2 °F 98% 30.02 in 7.0 mi Calm Calm - 0.02 in   Overcast
10:15 PM 62.8 °F 62.2 °F 98% 30.00 in 7.0 mi Calm Calm - 0.01 in   Overcast
10:35 PM 63.0 °F 62.6 °F 99% 30.01 in 7.0 mi Calm Calm - 0.02 in   Overcast
10:55 PM 63.0 °F 62.6 °F 99% 30.01 in 10.0 mi Calm Calm - 0.04 in   Overcast
11:15 PM 63.0 °F 62.6 °F 99% 30.01 in 4.0 mi Calm Calm - 0.02 in Rain Rain
11:35 PM 63.1 °F 62.6 °F 98% 30.00 in 4.0 mi Calm Calm - 0.04 in Rain Light Rain
11:55 PM 63.3 °F 62.6 °F 97% 30.00 in 7.0 mi Calm Calm - 0.06 in Rain Rain